• In Russia
  • List of Countries
  • For 7 days
  • Water Temperature
  • Satellite Maps
  • Weather Map
  • Weather Widgets
  • user-avatar
    Login

    Hourly Weather Sumgayit

    Today, 23 May, Tuesday

    Time Temperature Precipitation Wind Pressure Humidity
    00:00 +17°C° 0 mm 3 mps 736 mmHg 76%
    01:00 +17°C° 0 mm 3 mps 736 mmHg 75%
    02:00 +16°C° 0 mm 3 mps 736 mmHg 75%
    03:00 +16°C° 0 mm 3 mps 735 mmHg 74%
    04:00 +17°C° 0 mm 4 mps 735 mmHg 73%
    05:00 +17°C° 0 mm 4 mps 736 mmHg 71%
    06:00 +17°C° 0 mm 5 mps 736 mmHg 70%
    07:00 +19°C° 0 mm 6 mps 736 mmHg 64%
    08:00 +21°C° 0 mm 6 mps 736 mmHg 57%
    09:00 +22°C° 0 mm 7 mps 736 mmHg 51%
    10:00 +24°C° 0 mm 7 mps 736 mmHg 46%
    11:00 +26°C° 0 mm 7 mps 735 mmHg 42%
    12:00 +28°C° 0 mm 7 mps 735 mmHg 37%
    13:00 +28°C° 0 mm 6 mps 735 mmHg 37%
    14:00 +28°C° 0 mm 5 mps 735 mmHg 36%
    15:00 +28°C° 0 mm 5 mps 735 mmHg 36%
    16:00 +26°C° 0 mm 5 mps 735 mmHg 44%
    17:00 +23°C° 0 mm 6 mps 735 mmHg 51%
    18:00 +22°C° 0 mm 7 mps 735 mmHg 59%
    19:00 +21°C° 0 mm 7 mps 736 mmHg 62%
    20:00 +20°C° 0 mm 7 mps 736 mmHg 66%
    21:00 +18°C° 0 mm 7 mps 737 mmHg 69%
    22:00 +18°C° 0 mm 8 mps 737 mmHg 68%
    23:00 +17°C° 0 mm 8 mps 737 mmHg 68%

    Tomorrow, 24 May, Wednesday

    Time Temperature Precipitation Wind Pressure Humidity
    00:00 +17°C° 0 mm 8 mps 737 mmHg 67%
    01:00 +16°C° 0 mm 7 mps 737 mmHg 67%
    02:00 +16°C° 0 mm 6 mps 737 mmHg 68%
    03:00 +16°C° 0 mm 6 mps 737 mmHg 68%
    04:00 +16°C° 0 mm 5 mps 737 mmHg 66%
    05:00 +17°C° 0 mm 5 mps 737 mmHg 64%
    06:00 +17°C° 0 mm 5 mps 737 mmHg 62%
    07:00 +19°C° 0 mm 4 mps 737 mmHg 58%
    08:00 +21°C° 0 mm 4 mps 738 mmHg 54%
    09:00 +22°C° 0 mm 4 mps 738 mmHg 49%
    10:00 +23°C° 0 mm 4 mps 738 mmHg 48%
    11:00 +23°C° 0 mm 5 mps 738 mmHg 48%
    12:00 +25°C° 0 mm 5 mps 738 mmHg 47%
    13:00 +25°C° 0 mm 5 mps 737 mmHg 47%
    14:00 +25°C° 0 mm 5 mps 737 mmHg 48%
    15:00 +23°C° 0 mm 5 mps 737 mmHg 49%
    16:00 +22°C° 0 mm 6 mps 737 mmHg 53%
    17:00 +21°C° 0 mm 7 mps 737 mmHg 57%
    18:00 +20°C° 0 mm 8 mps 737 mmHg 61%
    19:00 +20°C° 0.1 mm 8 mps 738 mmHg 63%
    20:00 +18°C° 0.1 mm 8 mps 738 mmHg 65%
    21:00 +17°C° 0.1 mm 9 mps 739 mmHg 67%
    22:00 +17°C° 0.2 mm 8 mps 739 mmHg 68%
    23:00 +17°C° 0.2 mm 8 mps 739 mmHg 69%

    Day after tomorrow, 25 May, Thursday

    Time Temperature Precipitation Wind Pressure Humidity
    00:00 +16°C° 0.2 mm 7 mps 739 mmHg 70%
    01:00 +16°C° 0 mm 6 mps 739 mmHg 72%
    02:00 +16°C° 0 mm 5 mps 739 mmHg 75%
    03:00 +15°C° 0 mm 5 mps 738 mmHg 77%
    04:00 +17°C° 0 mm 4 mps 739 mmHg 75%
    05:00 +17°C° 0 mm 4 mps 739 mmHg 73%
    06:00 +17°C° 0 mm 4 mps 739 mmHg 71%
    07:00 +18°C° 0 mm 4 mps 739 mmHg 67%
    08:00 +19°C° 0 mm 3 mps 740 mmHg 64%
    09:00 +20°C° 0 mm 3 mps 740 mmHg 61%
    10:00 +21°C° 0 mm 4 mps 740 mmHg 57%
    11:00 +22°C° 0 mm 4 mps 740 mmHg 53%
    12:00 +23°C° 0 mm 4 mps 740 mmHg 50%
    13:00 +23°C° 0 mm 5 mps 739 mmHg 50%
    14:00 +22°C° 0 mm 5 mps 739 mmHg 50%
    15:00 +22°C° 0 mm 5 mps 739 mmHg 50%
    16:00 +21°C° 0 mm 5 mps 739 mmHg 54%
    17:00 +20°C° 0 mm 5 mps 739 mmHg 58%
    18:00 +19°C° 0 mm 5 mps 740 mmHg 62%
    19:00 +18°C° 0 mm 4 mps 740 mmHg 63%
    20:00 +18°C° 0 mm 4 mps 741 mmHg 64%
    21:00 +17°C° 0 mm 3 mps 741 mmHg 65%
    22:00 +17°C° 0 mm 3 mps 741 mmHg 66%
    23:00 +17°C° 0 mm 2 mps 741 mmHg 68%

    26 May, Friday

    Time Temperature Precipitation Wind Pressure Humidity
    00:00 +16°C° 0 mm 2 mps 741 mmHg 69%
    01:00 +16°C° 0 mm 1 mps 741 mmHg 70%
    02:00 +16°C° 0 mm 1 mps 741 mmHg 71%
    03:00 +16°C° 0 mm 1 mps 741 mmHg 72%
    04:00 +16°C° 0 mm 1 mps 741 mmHg 69%
    05:00 +18°C° 0 mm 1 mps 741 mmHg 65%
    06:00 +18°C° 0 mm 1 mps 741 mmHg 62%
    07:00 +19°C° 0 mm 2 mps 741 mmHg 58%
    08:00 +20°C° 0 mm 2 mps 741 mmHg 54%
    09:00 +21°C° 0 mm 2 mps 742 mmHg 51%
    10:00 +22°C° 0 mm 3 mps 741 mmHg 49%
    11:00 +23°C° 0 mm 4 mps 741 mmHg 47%
    12:00 +25°C° 0 mm 4 mps 741 mmHg 46%
    13:00 +25°C° 0 mm 5 mps 741 mmHg 47%
    14:00 +25°C° 0 mm 5 mps 740 mmHg 48%
    15:00 +25°C° 0 mm 5 mps 740 mmHg 48%
    16:00 +23°C° 0 mm 5 mps 740 mmHg 53%
    17:00 +22°C° 0 mm 5 mps 740 mmHg 57%
    18:00 +20°C° 0 mm 4 mps 740 mmHg 61%
    19:00 +20°C° 0 mm 3 mps 740 mmHg 64%
    20:00 +19°C° 0 mm 3 mps 740 mmHg 67%
    21:00 +18°C° 0 mm 2 mps 740 mmHg 71%
    22:00 +18°C° 0 mm 2 mps 740 mmHg 72%
    23:00 +18°C° 0 mm 1 mps 739 mmHg 73%

    27 May, Saturday

    Time Temperature Precipitation Wind Pressure Humidity
    00:00 +18°C° 0 mm 1 mps 739 mmHg 74%
    01:00 +18°C° 0 mm 1 mps 739 mmHg 73%
    02:00 +18°C° 0 mm 1 mps 739 mmHg 72%
    03:00 +17°C° 0 mm 2 mps 739 mmHg 71%
    04:00 +17°C° 0 mm 2 mps 739 mmHg 68%
    05:00 +18°C° 0 mm 2 mps 739 mmHg 65%
    06:00 +19°C° 0 mm 3 mps 739 mmHg 61%
    07:00 +20°C° 0 mm 3 mps 739 mmHg 57%
    08:00 +22°C° 0 mm 3 mps 739 mmHg 52%
    09:00 +23°C° 0 mm 4 mps 739 mmHg 47%
    10:00 +25°C° 0 mm 4 mps 738 mmHg 45%
    11:00 +26°C° 0 mm 4 mps 738 mmHg 42%
    12:00 +27°C° 0 mm 5 mps 738 mmHg 39%
    13:00 +28°C° 0 mm 5 mps 737 mmHg 39%
    14:00 +28°C° 0 mm 5 mps 737 mmHg 38%
    15:00 +28°C° 0 mm 5 mps 736 mmHg 38%
    16:00 +27°C° 0.2 mm 5 mps 736 mmHg 42%
    17:00 +26°C° 0.2 mm 4 mps 736 mmHg 46%
    18:00 +23°C° 0.2 mm 4 mps 735 mmHg 50%
    19:00 +22°C° 0.4 mm 3 mps 735 mmHg 55%
    20:00 +21°C° 0.4 mm 2 mps 735 mmHg 60%
    21:00 +21°C° 0.4 mm 1 mps 735 mmHg 66%
    22:00 +21°C° 0.2 mm 1 mps 735 mmHg 67%
    23:00 +20°C° 0.2 mm 1 mps 734 mmHg 68%

    28 May, Sunday

    Time Temperature Precipitation Wind Pressure Humidity
    00:00 +20°C° 0.2 mm 1 mps 734 mmHg 69%
    01:00 +20°C° 0 mm 1 mps 734 mmHg 69%
    02:00 +20°C° 0 mm 1 mps 733 mmHg 69%
    03:00 +19°C° 0 mm 1 mps 733 mmHg 69%
    04:00 +20°C° 0 mm 1 mps 733 mmHg 66%
    05:00 +19°C° 0 mm 2 mps 733 mmHg 64%
    06:00 +20°C° 0 mm 2 mps 734 mmHg 61%
    07:00 +22°C° 0 mm 3 mps 734 mmHg 53%
    08:00 +23°C° 0 mm 4 mps 734 mmHg 45%
    09:00 +26°C° 0 mm 5 mps 734 mmHg 37%
    10:00 +27°C° 0 mm 6 mps 734 mmHg 36%
    11:00 +28°C° 0 mm 6 mps 734 mmHg 36%
    12:00 +28°C° 0 mm 7 mps 734 mmHg 35%
    13:00 +28°C° 0 mm 7 mps 734 mmHg 35%
    14:00 +28°C° 0 mm 7 mps 734 mmHg 36%
    15:00 +28°C° 0 mm 8 mps 734 mmHg 36%
    16:00 +27°C° 0 mm 7 mps 734 mmHg 40%
    17:00 +26°C° 0 mm 7 mps 734 mmHg 44%
    18:00 +24°C° 0 mm 6 mps 735 mmHg 48%
    19:00 +23°C° 0 mm 5 mps 735 mmHg 53%
    20:00 +21°C° 0 mm 4 mps 736 mmHg 57%
    21:00 +20°C° 0 mm 4 mps 736 mmHg 61%
    22:00 +20°C° 0 mm 3 mps 736 mmHg 63%
    23:00 +20°C° 0 mm 3 mps 736 mmHg 64%
    Show more